Location: Göttingen
(51.5413°N, 9.9158°E)
Time: 13:17:43
(UTC+02:00)

STARS - Visible Passes

Search period start: 25 June 2022 00:00
Search period end: 05 July 2022 00:00
Orbit: 622 x 636 km, 98.2° (Epoch: 24 June)

Date Brightness Start Highest point End Pass type
(mag) Time Alt. Az. Time Alt. Az. Time Alt. Az.
25 Jun ? 01:28:55 10° N 01:32:22 23° WNW 01:35:47 10° WSW visible
25 Jun ? 22:38:19 10° ENE 22:39:32 11° E 22:40:45 10° ESE visible
26 Jun ? 00:12:07 10° NNE 00:16:32 81° ESE 00:19:40 19° S visible
26 Jun ? 01:49:32 10° NNW 01:52:15 16° NW 01:54:57 10° W visible
26 Jun ? 22:57:02 10° NE 22:59:54 17° E 23:02:37 10° SE visible
27 Jun ? 00:32:15 10° N 00:36:38 67° WNW 00:39:59 17° SSW visible
27 Jun ? 02:10:36 10° NNW 02:12:05 12° NW 02:13:34 10° WNW visible
27 Jun ? 23:16:34 10° NE 23:20:12 25° E 23:22:56 14° SE visible
28 Jun ? 00:52:29 10° N 00:56:40 44° WNW 01:00:18 13° SW visible
28 Jun ? 23:36:21 10° NNE 23:40:27 37° E 23:43:15 18° SSE visible
29 Jun ? 01:12:48 10° N 01:16:39 30° WNW 01:20:27 10° SW visible
29 Jun ? 23:56:18 10° NNE 00:00:39 57° E 00:03:33 20° S visible
30 Jun ? 01:33:15 10° N 01:36:34 21° WNW 01:39:52 10° WSW visible
30 Jun ? 22:42:10 10° ENE 22:43:48 12° E 22:45:27 10° ESE visible
01 Jul ? 00:16:21 10° NNE 00:20:46 87° ESE 00:23:51 19° SSW visible
01 Jul ? 01:53:54 10° NNW 01:56:26 15° NW 01:58:57 10° W visible
01 Jul ? 23:01:08 10° NE 23:04:10 18° E 23:06:48 11° SE visible
02 Jul ? 00:36:30 10° N 00:40:50 62° WNW 00:44:08 17° SSW visible
02 Jul ? 02:15:11 10° NW 02:16:15 11° NW 02:17:18 10° WNW visible
02 Jul ? 23:20:43 10° NE 23:24:27 27° E 23:27:05 15° SE visible
03 Jul ? 00:56:44 10° N 01:00:51 41° WNW 01:04:27 13° SW visible
03 Jul ? 23:40:32 10° NNE 23:44:41 40° E 23:47:23 19° SSE visible
04 Jul ? 01:17:04 10° N 01:20:49 28° WNW 01:24:33 10° WSW visible
